sat.trackr.live / text

‹ back to catalog

SKY MUSTER 1 (NBN1A)

NORAD 40940 · 2015-054A

PAYLOAD ACTIVE UNKNOWN

§ Identity

Operator
Country
AUS
Launch date
2015-09-30
Launch site
FRGUI
Launch vehicle
Mass (kg)
RCS (m²)
51.58

Purposes: comms

External: N2YO · Heavens-Above · Gunter

§ Orbital elements

Epoch: 2026-05-25T04:24:28.440864Z

Period
1,436.09 min
Inclination
0.0162°
Eccentricity
0.0001829
Mean motion
1.00272598 rev/d
Perigee alt
35,778.7 km
Apogee alt
35,794.1 km
Semi-major
42,164.5 km
B*
0.0000e+0
RAAN
299.3930°
Arg perigee
116.5746°
Mean anomaly
33.1850°
Rev number
3,903

§ Raw data

SKY MUSTER 1 (NBN1A)1 40940U 15054A   26145.18366251 -.00000280  00000+0  00000+0 0  99912 40940   0.0162 299.3930 0001829 116.5746  33.1850  1.00272598 39032

JSON: /api/v1/satellites/40940 · /tle

For live sub-satellite position, see the globe view (requires WebGL).

§ Visibility from observer

Set your observer location to see the next 7 days of passes ≥ 10°. The values pass through the URL so the page stays shareable.

No JS? Fill the form by hand. The geolocation button needs JavaScript.